EW2517 Weather Reports


Display with metric or nautical units.
time (UTC)temp
F
wind
direction
speed
MPH
gust
MPH
rain 1hr
in
rain 24hr
in
rain mn
in
humidity
%
barometer
mb
20260507060101 52 360 0.0 0.0 0.00 0.19 0.05 88 1006.4
20260507054612 52 360 0.0 2.0 0.00 0.19 0.05 88 1006.8
20260507053105 52 360 0.0 2.0 0.00 0.19 0.05 89 1006.9
20260507051557 52 360 0.0 2.0 0.00 0.19 0.05 88 1006.7
20260507050055 52 360 1.0 2.0 0.00 0.19 0.05 88 1006.8
20260507044554 53 360 0.0 3.0 0.00 0.19 0.05 89 1006.3
20260507043046 54 360 0.0 2.0 0.00 0.19 0.05 90 1006.7
20260507041526 54 360 0.0 3.0 0.00 0.19 0.05 90 1006.8
20260507040023 55 360 0.0 3.0 0.00 0.19 0.05 90 1006.7
20260507034508 56 360 0.0 0.0 0.00 0.19 0.05 91 1006.3
20260507033005 56 360 0.0 1.0 0.00 0.19 0.05 91 1005.9
20260507031502 57 360 0.0 1.0 0.00 0.19 0.05 91 1005.8
20260507030104 58 360 0.0 3.0 0.00 0.19 0.05 92 1005.6
20260507024556 59 360 0.0 1.0 0.00 0.19 0.05 92 1005.5
20260507023052 59 360 0.0 3.0 0.00 0.19 0.05 92 1005.5
20260507021601 59 360 2.0 5.0 0.00 0.19 0.05 92 1005.2
20260507020107 59 360 0.0 4.0 0.00 0.19 0.05 92 1004.8
20260507014542 59 360 0.0 2.0 0.00 0.19 0.05 92 1005.0
20260507013043 59 360 0.0 4.0 0.00 0.19 0.05 92 1004.9
20260507011541 59 360 0.0 4.0 0.00 0.19 0.05 92 1005.0
20260507010041 59 360 0.0 3.0 0.00 0.19 0.05 92 1004.9
20260507004530 59 360 1.0 5.0 0.00 0.19 0.05 92 1005.0
20260507003028 59 360 0.0 5.0 0.00 0.19 0.05 92 1004.8
20260507001535 59 360 1.0 3.0 0.01 0.19 0.05 92 1004.8
20260507000026 59 360 1.0 3.0 0.02 0.19 0.05 92 1004.8
20260506234504 59 360 0.0 4.0 0.03 0.19 0.05 92 1004.6
20260506233100 59 360 0.0 4.0 0.04 0.19 0.05 92 1004.5
20260506231547 59 360 0.0 8.0 0.03 0.18 0.04 92 1004.5
20260506230052 59 360 0.0 4.0 0.03 0.17 0.03 92 1004.7
20260506224547 59 360 1.0 5.0 0.02 0.16 0.02 92 1004.8
20260506223042 59 360 1.0 6.0 0.02 0.15 0.01 91 1004.7
20260506221551 60 360 2.0 6.0 0.03 0.15 0.01 92 1004.8
20260506220043 60 360 0.0 5.0 0.03 0.14 0.00 91 1004.9
20260506214535 60 360 1.0 6.0 0.04 0.14 0.14 91 1005.0
20260506213042 60 360 2.0 6.0 0.06 0.13 0.13 91 1004.9
20260506211537 60 360 2.0 9.0 0.06 0.12 0.12 91 1005.1
20260506210033 61 360 2.0 6.0 0.06 0.11 0.11 91 1005.3
20260506204523 61 360 1.0 14.0 0.05 0.10 0.10 90 1005.5
20260506203020 62 360 1.0 6.0 0.02 0.07 0.07 90 1005.5
20260506201523 62 360 1.0 6.0 0.01 0.06 0.06 89 1005.6
20260506200019 62 360 2.0 8.0 0.01 0.05 0.05 88 1005.6
20260506194519 63 360 2.0 6.0 0.02 0.05 0.05 88 1005.8
20260506193032 63 360 0.0 5.0 0.03 0.05 0.05 89 1005.6
20260506191501 63 360 0.0 2.0 0.04 0.05 0.05 89 1005.7
20260506190000 63 360 0.0 4.0 0.04 0.04 0.04 88 1005.8
20260506184547 64 360 1.0 4.0 0.03 0.03 0.03 87 1006.0
20260506183046 65 360 1.0 6.0 0.02 0.02 0.02 84 1006.2
20260506181600 66 360 2.0 5.0 0.00 0.00 0.00 79 1006.5
20260506180045 68 360 1.0 5.0 0.00 0.00 0.00 70 1006.2
20260506174543 70 53 1.0 9.0 0.00 0.00 0.00 64 1006.1
20260506173111 72 97 3.0 10.0 0.00 0.00 0.00 58 1006.0
20260506171643 73 297 3.0 11.0 0.00 0.00 0.00 56 1005.9
20260506170056 73 292 6.0 12.0 0.00 0.00 0.00 57 1006.1
20260506164524 72 306 2.0 11.0 0.00 0.00 0.00 59 1006.4
20260506163028 71 49 3.0 9.0 0.00 0.00 0.00 61 1006.6
20260506161505 71 257 2.0 10.0 0.00 0.00 0.00 62 1006.7
20260506160005 70 82 2.0 7.0 0.00 0.00 0.00 65 1007.2
20260506154605 69 55 3.0 12.0 0.00 0.00 0.00 65 1007.5
20260506153046 69 49 2.0 9.0 0.00 0.00 0.00 65 1007.7
20260506151535 69 53 3.0 13.0 0.00 0.00 0.00 65 1008.0
20260506150036 70 277 3.0 10.0 0.00 0.00 0.00 65 1007.9
20260506144542 69 76 3.0 13.0 0.00 0.00 0.00 66 1008.1
20260506143034 69 31 4.0 11.0 0.00 0.00 0.00 67 1007.9
20260506141532 69 292 3.0 11.0 0.00 0.00 0.00 68 1008.0
20260506140035 68 304 3.0 8.0 0.00 0.00 0.00 71 1007.7
20260506134531 67 13 2.0 6.0 0.00 0.00 0.00 72 1007.9
20260506133038 66 279 2.0 10.0 0.00 0.00 0.00 72 1008.1
20260506131511 66 297 2.0 11.0 0.00 0.00 0.00 73 1008.4
20260506130011 65 5 1.0 12.0 0.00 0.00 0.00 74 1008.4
20260506124559 65 285 2.0 9.0 0.00 0.00 0.00 74 1008.5
20260506123056 64 258 1.0 4.0 0.00 0.00 0.00 76 1008.2
20260506121552 63 5 3.0 9.0 0.00 0.00 0.00 76 1008.3
20260506120051 63 33 1.0 5.0 0.00 0.00 0.00 78 1008.6
20260506114551 62 150 3.0 8.0 0.00 0.00 0.00 78 1008.7
20260506113044 61 91 3.0 7.0 0.00 0.00 0.00 79 1008.8
20260506111543 61 130 2.0 6.0 0.00 0.00 0.00 79 1008.9
20260506110045 60 115 2.0 7.0 0.00 0.00 0.00 80 1008.8
20260506104554 60 5 1.0 5.0 0.00 0.00 0.00 81 1008.9
20260506103028 60 307 2.0 7.0 0.00 0.00 0.00 80 1008.9
20260506101529 60 71 1.0 5.0 0.00 0.00 0.00 80 1008.7
20260506100029 60 302 1.0 9.0 0.00 0.00 0.00 79 1008.8
20260506094532 60 331 2.0 8.0 0.00 0.00 0.00 80 1008.7
20260506093023 60 306 0.0 4.0 0.00 0.00 0.00 79 1008.5
20260506091521 60 305 1.0 7.0 0.00 0.00 0.00 78 1008.8
20260506090019 61 284 2.0 6.0 0.00 0.00 0.00 77 1008.7
20260506084507 61 80 2.0 7.0 0.00 0.00 0.00 77 1008.7
20260506083008 61 300 1.0 8.0 0.00 0.00 0.00 76 1008.7
20260506081506 61 49 3.0 7.0 0.00 0.00 0.00 75 1008.6
20260506073058 62 83 1.0 4.0 0.00 0.00 0.00 72 1008.5
20260506071619 62 73 3.0 9.0 0.00 0.00 0.00 71 1008.3
20260506061534 64 68 2.0 13.0 0.00 0.00 0.00 67 1008.2